OneWeb SL0158

operational
NORAD ID: 48054 Int'l Des: 2021-025 Owner: ONEWEBN Country: UK Constellation: oneweb
LEOCIRCULARPOLARONEWEB_TYPE

OneWeb SL0158について

説明を読み込み中...

リアルタイム位置

3D地球を読み込み中...

次回通過

高度履歴

Altitude vs Time

uPlot chart will show altitude changes over time

軌道要素

1 48054U 21025N 26034.28428236 -.00000229 00000-0 -66332-3 0 9999
2 48054 87.9033 346.8245 0001506 74.4383 285.6912 13.13471423236054
Epoch: Feb 3, 2026 • Age: 28 hours

現在のステータス

高度 1211.8 km
速度 7.25 km/s
衛星直下点 23.27°N, 57.43°E
打ち上げ日 Mar 25, 2021
運用期間 4.8 years
タイプ internet

技術仕様

分類 Payload
質量 148.00 kg
乾燥質量 140.00 kg
総質量 148.00 kg
長さ 1.30 m
直径 1.00 m
スパン 5.00 m
形状 Trapezoid+2 pan
製造者 ONEWUS
バスタイプ ARROW
フェーズステータス In Orbit
所有者/国 ONEWEBN/UK

大規模コンステレーション

Loading constellations...